Tracking 30986 objects as of 9-Jul-2025
HD Live streaming from Space Station
objects crossing your sky now

STARLINK-6239

Track STARLINK-6239 now!
10-day predictions
STARLINK-6239 is classified as:


NORAD ID: 56423
Int'l Code: 2023-061BB
Perigee: 565.5 km
Apogee: 567.0 km
Inclination: 43.0 °
Period: 95.8 minutes
Semi major axis: 6937 km
RCS: Unknown
Launch date: May 4, 2023
Source: United States (US)
Launch site: AIR FORCE EASTERN TEST RANGE (AFETR)
Your satellite tracking list
Your tracking list is empty




NASA's NSSDC Master Catalog

Two Line Element Set (TLE):
1 56423U 23061BB  25189.91888673  .00000412  00000-0  45539-4 0  9994
2 56423  43.0051  56.1739 0001102 268.2637  91.8079 15.02533792120389
Source of the keplerian elements: AFSPC